Weather History for KGSO - July, 2014

Change the Weather History Date:

Tuesday, July 22, 2014

  Actual Average Record
Temperature  
Mean Temperature 76 °F 79 °F  
Max Temperature 83 °F 88 °F 101 °F (1926)
Min Temperature 69 °F 69 °F 54 °F (1974)
Degree Days  
Heating Degree Days 0 0  
Month to date heating degree days 0 0  
Since 1 June heating degree days 0 6  
Since 1 July heating degree days 0 0  
Cooling Degree Days 11 14  
Month to date cooling degree days 283 302  
Year to date cooling degree days 837 768  
Since 1 June cooling degree days 640 609  
Growing Degree Days 26 (Base 50)    
Moisture  
Dew Point 70 °F    
Average Humidity 83    
Maximum Humidity 100    
Minimum Humidity 65    
Precipitation  
Precipitation 0.01 in 0.14 in 3.22 in (2006)
Month to date precipitation 1.55 3.10  
Year to date precipitation 22.04 23.53  
Sea Level Pressure  
Sea Level Pressure 30.13 in    
Wind  
Wind Speed 4 mph (ENE)    
Max Wind Speed 10 mph    
Max Gust Speed 14 mph    
Visibility 8 miles    
Events Fog , Rain    
T = Trace of Precipitation, MM = Missing Value Source: NWS Daily Summary

Daily Weather History Graph

Daily Weather History Graph

Search for Another Location

Airport or City:

Trip Planner

Search our weather history database for the weather conditions in past years. The results will help you decide how hot, cold, wet, or windy it might be!

Date:

Astronomy

Jul. 22, 2014 Rise Set
Actual Time 6:19 AM EDT 8:32 PM EDT
Civil Twilight 5:50 AM EDT 9:01 PM EDT
Nautical Twilight 5:14 AM EDT 9:37 PM EDT
Astronomical Twilight 4:35 AM EDT 10:15 PM EDT
Moon 2:49 AM EDT (7/22) 5:09 PM EDT (7/22)
Length of Visible Light 15h 11m
Length of Day
14h 13m
Waning Crescent, 16% of the Moon is Illuminated
Jul 22
Waning Crescent
Jul 26
New
Aug 3
First Quarter
Aug 10
Full
Aug 17
Last Quarter

Hourly Weather History & Observations

Time (EDT) Temp. Heat Index Dew Point Humidity Pressure Visibility Wind Dir Wind Speed Gust Speed Precip Events Conditions
12:54 AM 72.0 °F - 69.1 °F 91% 30.14 in 9.0 mi Calm Calm - N/A   Mostly Cloudy
1:42 AM 71.6 °F - 69.8 °F 94% 30.17 in 6.0 mi East 3.5 mph - N/A   Mostly Cloudy
1:54 AM 71.1 °F - 70.0 °F 96% 30.14 in 8.0 mi ESE 5.8 mph - N/A   Mostly Cloudy
2:54 AM 71.1 °F - 69.1 °F 93% 30.12 in 10.0 mi SSE 4.6 mph - N/A   Mostly Cloudy
3:39 AM 71.6 °F - 69.8 °F 94% 30.14 in 10.0 mi SE 5.8 mph - N/A   Mostly Cloudy
3:54 AM 70.0 °F - 68.0 °F 93% 30.12 in 10.0 mi Calm Calm - N/A   Mostly Cloudy
4:54 AM 70.0 °F - 68.0 °F 93% 30.12 in 6.0 mi NNE 5.8 mph - N/A   Mostly Cloudy
5:22 AM 69.8 °F - 69.8 °F 100% 30.15 in 6.0 mi NNE 3.5 mph - N/A   Mostly Cloudy
5:26 AM 69.8 °F - 69.8 °F 100% 30.15 in 0.5 mi NNE 3.5 mph - N/A   Overcast
5:54 AM 69.1 °F - 69.1 °F 100% 30.12 in 0.5 mi NNE 3.5 mph - N/A Fog Fog
6:23 AM 69.8 °F - 69.8 °F 100% 30.16 in 1.5 mi ENE 4.6 mph - N/A   Mostly Cloudy
6:54 AM 70.0 °F - 69.1 °F 97% 30.14 in 2.0 mi ENE 4.6 mph - N/A   Overcast
7:54 AM 70.0 °F - 69.1 °F 97% 30.16 in 2.0 mi ENE 5.8 mph - N/A   Overcast
7:56 AM 69.8 °F - 69.8 °F 100% 30.19 in 5.0 mi ENE 5.8 mph - N/A   Overcast
8:54 AM 73.0 °F - 70.0 °F 90% 30.17 in 10.0 mi ENE 5.8 mph - N/A   Mostly Cloudy
9:54 AM 73.9 °F - 70.0 °F 87% 30.17 in 10.0 mi ENE 5.8 mph - N/A   Overcast
10:25 AM 75.2 °F - 69.8 °F 83% 30.20 in 10.0 mi NE 3.5 mph - N/A   Overcast
10:54 AM 75.9 °F - 70.0 °F 82% 30.17 in 10.0 mi NE 6.9 mph - N/A   Overcast
11:16 AM 75.2 °F - 69.8 °F 83% 30.19 in 10.0 mi ENE 5.8 mph - N/A   Overcast
11:48 AM 75.2 °F - 69.8 °F 83% 30.19 in 10.0 mi East 4.6 mph - N/A   Overcast
11:54 AM 77.0 °F - 70.0 °F 79% 30.16 in 10.0 mi ESE 6.9 mph - N/A   Overcast
1:54 PM 82.9 °F 87.0 °F 70.0 °F 65% 30.12 in 10.0 mi Calm Calm - N/A   Mostly Cloudy
2:14 PM 80.6 °F 83.9 °F 69.8 °F 70% 30.15 in 10.0 mi Calm Calm - N/A   Mostly Cloudy
2:54 PM 81.0 °F 84.1 °F 69.1 °F 67% 30.11 in 10.0 mi Calm Calm - N/A   Mostly Cloudy
3:46 PM 78.8 °F - 71.6 °F 78% 30.13 in 9.0 mi ESE 10.4 mph - 0.00 in Rain Light Rain
3:54 PM 78.1 °F - 71.1 °F 79% 30.10 in 7.0 mi ESE 9.2 mph - 0.00 in Rain Light Rain
4:54 PM 81.0 °F 84.4 °F 70.0 °F 69% 30.09 in 10.0 mi Calm Calm - 0.01 in   Mostly Cloudy
5:54 PM 81.0 °F 84.4 °F 70.0 °F 69% 30.09 in 10.0 mi Calm Calm - N/A   Mostly Cloudy
6:54 PM 79.0 °F - 71.1 °F 77% 30.08 in 10.0 mi SE 9.2 mph - N/A   Mostly Cloudy
7:54 PM 79.0 °F - 70.0 °F 74% 30.08 in 10.0 mi SW 3.5 mph - N/A   Mostly Cloudy
8:54 PM 78.1 °F - 68.0 °F 71% 30.09 in 10.0 mi Calm Calm - N/A   Mostly Cloudy
9:54 PM 75.2 °F - 69.8 °F 83% 30.12 in 10.0 mi Calm Calm - N/A   Scattered Clouds
10:54 PM 73.0 °F - 70.0 °F 90% 30.09 in 10.0 mi Calm Calm - N/A   Scattered Clouds
11:54 PM 73.0 °F - 69.1 °F 87% 30.10 in 10.0 mi Calm Calm - N/A   Scattered Clouds